Wind_Speed
37 37 38 37 35 34 36 36 34 32 30 30 31 30 29 28 25 24 24 22 17 18 13 12 15 15 12 14 16 19 23 26 30 34 33 31 29 27 29 33 45 51 46
41 39 38 37 36 36 35 34 33 33 32 33 32 30 31 29 25 23 25 19 15 13 10 12 11 14 13 15 15 19 24 27 27 35 35 32 29 30 35 44 50 54 46
44 42 42 41 40 38 36 33 30 28 30 30 29 28 29 28 22 22 19 12 13 8 10 10 13 12 16 17 17 20 23 24 28 32 33 30 32 33 38 44 47 56 48
48 47 44 43 42 39 35 32 27 24 24 24 24 23 24 21 20 19 13 10 9 11 12 11 10 12 16 16 20 21 23 27 31 29 29 31 32 33 39 45 54 56 51
52 48 45 43 41 39 35 31 25 20 18 18 18 21 19 18 20 17 12 8 9 11 9 9 10 13 14 18 21 23 25 29 30 25 27 31 32 35 39 43 49 52 51
48 48 46 43 40 38 34 27 21 18 18 19 19 16 15 17 16 14 8 7 9 9 8 9 12 13 15 20 21 24 26 26 21 23 26 28 29 33 36 41 46 47 45
44 45 45 44 40 38 32 24 20 16 16 15 13 14 14 15 15 14 10 12 12 8 9 10 12 12 16 20 21 23 24 17 16 18 22 23 29 32 32 37 44 44 40
40 42 42 42 40 35 27 24 18 15 16 14 15 17 14 14 14 10 11 10 5 6 11 10 10 12 15 18 23 22 17 15 13 14 18 21 24 23 27 34 41 40 37
24 35 39 38 35 28 26 24 18 18 20 23 22 17 15 11 10 11 10 9 11 11 10 7 8 11 15 20 19 17 16 16 12 13 14 15 18 19 25 35 40 40 40
20 26 30 29 27 26 24 19 20 22 23 20 14 10 10 8 9 10 9 7 5 7 5 7 10 12 16 16 15 17 19 20 17 17 12 17 15 19 21 29 38 38 38
14 15 17 19 21 21 22 21 22 20 15 9 11 11 7 7 9 7 4 6 6 6 6 8 9 11 12 13 16 17 21 18 15 14 13 17 16 18 22 23 33 38 37
11 15 17 19 20 20 21 21 17 11 12 13 14 13 11 11 7 5 5 6 5 6 6 7 6 8 10 13 14 16 18 14 12 12 14 17 19 20 22 24 25 33 36
13 14 17 18 20 21 19 16 16 16 14 16 16 14 13 13 11 7 6 6 4 3 4 3 4 6 10 11 12 15 17 14 13 13 15 16 18 18 18 21 26 32 36
17 18 16 21 18 17 17 16 15 15 15 15 16 14 12 11 9 7 6 4 3 2 3 3 4 7 8 11 12 15 16 14 13 12 14 14 14 17 20 21 25 29 34
17 18 18 19 22 22 20 18 14 13 13 14 14 12 9 8 5 6 5 6 3 3 2 4 5 7 9 9 12 13 12 9 11 11 12 14 16 17 18 21 22 26 31
18 22 23 22 21 19 17 15 14 11 10 11 10 8 6 7 6 7 9 5 2 5 4 5 8 8 8 9 9 10 10 10 11 12 13 15 18 15 18 20 21 25 28
24 23 20 19 19 16 14 11 12 12 11 9 7 8 6 5 6 10 8 4 4 3 3 5 7 7 7 6 6 9 10 10 8 10 12 14 16 16 17 19 21 23 26
18 18 17 16 15 14 12 10 9 10 8 6 6 8 9 9 12 12 7 8 7 4 3 6 6 6 5 3 4 6 10 7 7 8 10 12 15 16 15 17 20 19 22
19 18 14 11 9 10 11 12 9 7 6 8 8 11 13 14 14 11 12 10 6 3 3 6 6 5 3 1 4 5 8 6 5 6 8 11 12 14 15 15 15 18 18
14 13 11 10 11 11 11 11 10 9 9 9 10 12 13 15 17 16 12 10 5 3 4 4 5 5 5 2 4 7 8 5 3 5 7 10 12 13 13 14 14 16 18
15 14 14 15 12 13 13 10 10 10 9 10 11 12 14 18 19 14 10 5 2 3 4 3 6 6 5 3 4 6 6 3 3 5 7 8 10 12 12 12 13 13 15
14 15 17 18 16 14 13 10 10 10 9 9 13 19 21 20 16 13 8 3 1 4 4 3 3 4 4 5 4 3 3 2 4 4 7 6 9 12 10 10 12 13 13
12 15 18 14 17 15 13 11 10 13 12 11 18 25 24 19 15 13 9 3 2 4 2 2 4 4 4 5 5 4 4 4 6 6 7 7 8 12 10 10 11 13 14
16 14 18 21 17 18 16 14 13 13 15 15 20 26 23 17 17 15 9 4 2 4 2 2 2 2 3 4 4 4 5 5 5 6 7 7 9 10 10 10 12 12 12
16 17 20 19 16 19 18 18 16 17 18 19 20 25 24 20 18 14 10 5 1 2 3 2 1 2 3 3 4 3 4 5 5 5 5 7 7 8 10 10 10 10 9
11 14 17 20 21 19 19 19 17 17 19 20 21 23 22 20 17 16 11 5 1 3 4 3 3 4 4 4 3 3 3 3 3 3 4 8 6 6 7 9 8 10 12
Wind_Direction
233 233 234 235 238 240 244 247 247 249 251 254 254 257 263 272 275 281 288 296 256 288 271 253 272 292 293 309 311 315 319 318 317 318 322 326 325 327 329 344 341 339 330
237 235 235 237 239 241 243 247 250 253 255 257 260 263 267 271 276 284 295 283 254 287 270 271 290 293 293 298 308 315 317 321 324 320 323 327 327 327 324 324 336 338 336
237 240 240 239 240 242 245 247 253 257 257 258 258 259 265 274 276 289 290 261 270 259 247 275 277 284 292 305 315 318 323 328 328 323 320 325 328 331 329 330 335 339 343
238 239 241 245 245 245 249 254 255 258 261 262 262 261 262 274 282 286 282 249 256 247 263 276 272 280 297 307 318 324 328 329 330 325 322 327 331 335 334 338 336 340 345
236 241 243 244 248 249 249 251 255 255 260 258 254 254 256 265 265 268 268 245 230 250 291 256 271 293 307 313 318 330 330 330 329 326 326 330 337 340 340 343 337 342 343
242 239 242 243 243 247 249 249 249 253 249 244 244 259 274 267 274 297 263 233 231 258 302 255 289 301 310 315 319 330 326 328 331 328 332 334 337 340 339 341 341 345 334
247 241 240 243 243 243 244 243 243 243 239 239 233 239 246 254 261 266 248 239 229 265 279 276 286 294 314 311 317 323 327 333 332 336 333 340 335 341 338 340 349 349 343
245 244 242 243 242 240 234 232 229 226 223 215 224 233 235 251 266 269 252 226 256 273 257 265 284 300 306 312 320 329 341 348 347 339 342 341 347 344 342 350 353 348 354
240 243 242 240 237 229 220 220 224 214 213 216 219 224 232 238 253 255 217 221 223 219 245 272 285 297 317 322 326 342 351 355 352 347 346 358 357 350 354 356 0 4 358
227 235 235 232 223 213 214 222 218 215 216 222 218 220 224 241 222 216 207 227 253 258 257 282 300 320 327 331 341 352 354 358 357 354 1 10 0 2 5 8 8 17 13
223 220 211 202 198 202 208 210 203 207 208 206 221 218 204 213 214 203 220 276 268 260 275 296 312 334 334 352 358 358 357 355 355 355 6 13 22 18 17 16 15 16 26
198 192 188 190 194 199 196 189 198 203 202 195 202 194 197 206 207 203 259 245 240 266 284 294 322 339 339 354 354 355 358 357 358 9 15 20 20 19 24 18 21 22 30
179 191 189 189 191 185 186 185 184 185 186 188 195 203 202 202 204 223 240 229 237 271 275 294 311 334 338 345 343 349 358 1 8 22 22 26 31 28 25 27 29 31 38
172 180 185 183 182 179 171 176 183 186 187 195 200 204 209 215 219 231 223 225 190 216 277 269 305 324 335 336 331 348 359 8 15 32 30 27 28 29 29 30 33 32 38
175 180 173 167 163 163 170 175 185 192 198 202 208 213 224 244 242 201 183 156 172 289 267 301 316 316 322 333 344 352 3 28 46 54 43 35 32 37 37 37 41 42 45
172 163 163 165 169 174 178 184 183 190 196 198 205 215 241 225 212 185 167 170 254 281 285 318 325 330 337 348 358 18 43 56 52 53 50 45 40 42 41 48 50 48 52
162 162 167 171 173 175 184 198 180 189 200 196 215 230 222 239 219 180 178 215 240 255 311 336 339 347 2 15 42 43 40 38 40 45 45 41 44 49 47 52 53 55 56
169 169 172 175 178 178 180 203 214 211 192 201 222 200 202 197 176 174 192 211 204 206 315 352 357 1 17 44 32 39 35 44 41 59 51 44 44 49 58 56 53 61 61
167 169 173 174 164 176 182 196 202 200 213 192 209 189 179 170 169 180 186 201 208 208 314 344 360 21 45 64 17 23 27 37 43 59 59 51 46 50 67 63 62 65 69
176 179 189 187 174 177 180 187 189 194 184 186 194 191 185 174 171 180 182 190 205 282 319 340 13 19 16 324 338 0 13 26 71 70 78 65 53 54 75 73 71 73 77
191 180 172 162 166 165 165 173 182 176 181 185 184 184 179 172 176 181 173 173 253 295 310 326 353 355 6 2 318 335 359 39 115 84 97 75 62 64 69 81 79 86 82
172 180 180 176 176 179 172 176 192 182 184 189 180 168 164 172 182 183 178 181 13 352 307 312 5 33 32 31 35 18 26 105 143 115 108 95 70 70 77 93 89 94 97
176 186 178 179 180 191 186 192 199 195 182 169 166 166 170 181 185 192 193 211 356 344 318 38 43 48 36 40 39 44 66 113 130 113 127 98 88 73 82 87 90 92 108
196 193 198 194 197 200 201 198 193 192 183 176 170 171 175 183 184 193 207 220 315 360 31 22 8 21 37 45 50 61 92 116 116 103 124 111 101 89 83 87 91 92 108
211 208 198 195 199 195 203 199 196 199 196 191 176 176 183 186 191 201 206 208 267 33 98 84 45 58 63 67 64 76 102 117 113 94 114 130 115 99 90 94 96 101 104
199 191 202 212 196 203 209 204 208 212 211 205 195 192 194 193 198 205 200 199 178 112 118 115 104 85 85 75 73 95 123 121 91 77 128 146 131 118 108 99 106 98 96
Height
1501 1505 1509 1512 1516 1519 1521 1523 1526 1530 1533 1535 1538 1540 1537 1537 1538 1530 1539 1534 1537 1537 1536 1535 1537 1536 1535 1533 1532 1531 1530 1523 1514 1506 1503 1499 1494 1490 1484 1476 1470 1461 1449
1494 1499 1502 1506 1509 1512 1514 1517 1522 1525 1528 1530 1533 1533 1531 1530 1528 1534 1534 1531 1534 1535 1535 1532 1533 1534 1532 1527 1524 1524 1523 1519 1511 1503 1497 1493 1489 1483 1475 1467 1459 1452 1439
1489 1492 1496 1498 1501 1503 1508 1514 1518 1520 1522 1524 1526 1527 1527 1526 1527 1529 1527 1528 1529 1529 1531 1530 1528 1528 1531 1529 1525 1521 1517 1513 1508 1501 1493 1489 1483 1477 1468 1462 1453 1440 1427
1480 1484 1488 1490 1494 1499 1505 1509 1513 1515 1517 1518 1520 1522 1524 1523 1525 1524 1524 1526 1527 1527 1528 1527 1526 1527 1527 1525 1521 1516 1512 1508 1503 1497 1491 1485 1479 1472 1465 1454 1441 1430 1418
1473 1477 1479 1485 1490 1496 1501 1504 1508 1511 1513 1513 1514 1515 1520 1520 1519 1517 1518 1519 1522 1525 1526 1526 1525 1525 1524 1522 1519 1513 1508 1503 1499 1493 1488 1481 1476 1469 1461 1452 1443 1427 1414
1464 1469 1476 1480 1486 1490 1495 1500 1504 1506 1507 1508 1509 1514 1515 1517 1519 1521 1523 1521 1519 1522 1526 1525 1523 1523 1522 1520 1516 1511 1506 1500 1495 1490 1485 1479 1474 1468 1459 1452 1442 1428 1412
1460 1465 1471 1475 1480 1484 1491 1496 1498 1501 1504 1506 1507 1509 1511 1514 1514 1516 1520 1522 1521 1521 1522 1521 1522 1521 1519 1518 1514 1508 1504 1500 1493 1488 1483 1480 1473 1466 1459 1451 1440 1429 1419
1457 1461 1465 1469 1474 1480 1488 1491 1495 1497 1499 1502 1504 1506 1507 1509 1512 1513 1515 1513 1519 1522 1521 1520 1520 1519 1516 1515 1511 1505 1500 1497 1492 1487 1484 1479 1473 1466 1460 1452 1439 1429 1417
1453 1457 1460 1465 1471 1477 1482 1483 1487 1492 1494 1495 1495 1495 1504 1505 1509 1512 1514 1514 1513 1511 1519 1518 1517 1517 1513 1511 1507 1502 1499 1495 1491 1488 1483 1479 1473 1467 1459 1451 1439 1426 1413
1449 1453 1457 1462 1468 1474 1479 1484 1485 1489 1492 1495 1499 1501 1502 1505 1507 1511 1515 1518 1516 1516 1517 1517 1516 1513 1510 1508 1505 1500 1497 1493 1488 1486 1483 1478 1472 1467 1461 1453 1443 1430 1417
1449 1453 1458 1463 1469 1474 1477 1481 1486 1489 1492 1497 1500 1502 1502 1506 1507 1510 1512 1513 1514 1515 1516 1515 1513 1511 1509 1507 1504 1501 1497 1493 1489 1486 1483 1479 1473 1468 1462 1456 1449 1437 1424
1450 1455 1460 1463 1468 1472 1476 1480 1485 1489 1492 1494 1498 1499 1501 1505 1508 1510 1512 1512 1512 1514 1514 1513 1512 1510 1508 1506 1504 1501 1497 1493 1490 1487 1483 1479 1474 1469 1464 1459 1453 1444 1432
1451 1456 1460 1465 1468 1471 1475 1480 1483 1486 1489 1492 1496 1499 1500 1502 1505 1508 1510 1511 1511 1512 1512 1511 1510 1509 1508 1506 1504 1501 1497 1494 1491 1488 1484 1481 1477 1472 1468 1463 1456 1449 1440
1451 1456 1461 1464 1467 1471 1475 1479 1482 1485 1488 1491 1495 1498 1501 1503 1505 1507 1508 1510 1511 1511 1511 1510 1509 1508 1507 1506 1503 1500 1497 1495 1491 1489 1487 1484 1480 1475 1470 1465 1459 1453 1446
1452 1456 1460 1465 1468 1471 1474 1478 1482 1486 1488 1491 1495 1498 1501 1503 1504 1505 1508 1509 1510 1510 1510 1510 1509 1508 1507 1505 1503 1501 1498 1496 1493 1490 1488 1485 1481 1477 1474 1469 1464 1458 1452
1452 1456 1460 1464 1469 1472 1476 1478 1482 1486 1489 1492 1495 1499 1501 1502 1504 1506 1508 1509 1509 1509 1509 1510 1509 1508 1507 1505 1504 1501 1499 1497 1494 1492 1490 1487 1483 1480 1477 1473 1469 1464 1459
1453 1457 1461 1465 1468 1472 1476 1479 1483 1487 1489 1492 1495 1498 1500 1502 1503 1505 1507 1508 1509 1510 1510 1509 1508 1507 1507 1506 1504 1502 1500 1498 1497 1495 1492 1489 1486 1483 1480 1476 1474 1470 1466
1456 1459 1463 1466 1469 1473 1476 1480 1483 1487 1488 1490 1493 1494 1497 1499 1502 1505 1507 1508 1509 1510 1511 1510 1508 1507 1506 1506 1505 1503 1501 1500 1498 1497 1494 1491 1489 1486 1483 1480 1479 1475 1472
1456 1460 1464 1467 1470 1473 1475 1479 1482 1485 1487 1489 1492 1495 1497 1500 1502 1505 1507 1508 1508 1509 1510 1509 1508 1507 1506 1505 1505 1503 1502 1501 1500 1498 1496 1494 1491 1489 1486 1484 1483 1480 1478
1458 1461 1464 1467 1470 1473 1475 1477 1481 1484 1487 1489 1492 1495 1497 1500 1502 1504 1506 1508 1509 1509 1508 1508 1507 1507 1507 1506 1505 1504 1503 1502 1501 1500 1498 1496 1493 1492 1489 1488 1486 1485 1483
1459 1460 1463 1467 1470 1474 1476 1479 1481 1484 1487 1489 1492 1495 1498 1500 1502 1505 1507 1508 1509 1509 1509 1508 1507 1507 1507 1506 1505 1504 1503 1502 1502 1502 1500 1498 1496 1494 1492 1491 1490 1489 1488
1461 1462 1464 1467 1471 1474 1477 1480 1481 1483 1486 1489 1491 1495 1499 1502 1504 1505 1507 1508 1508 1508 1508 1508 1508 1508 1507 1506 1505 1505 1504 1503 1503 1502 1501 1499 1498 1496 1495 1494 1493 1492 1492
1461 1463 1465 1467 1470 1473 1476 1479 1481 1484 1486 1488 1491 1494 1497 1501 1504 1506 1507 1508 1508 1507 1508 1508 1509 1508 1507 1506 1506 1505 1504 1503 1503 1503 1502 1501 1500 1499 1498 1497 1497 1496 1496
1460 1462 1464 1466 1469 1472 1475 1478 1481 1483 1485 1487 1489 1492 1495 1498 1502 1505 1507 1508 1509 1508 1509 1508 1509 1509 1508 1507 1506 1505 1505 1504 1504 1503 1503 1503 1502 1501 1501 1500 1499 1499 1499
1459 1461 1464 1466 1467 1470 1473 1476 1480 1481 1483 1486 1488 1491 1494 1497 1501 1504 1505 1507 1508 1509 1508 1510 1509 1509 1509 1507 1506 1506 1505 1505 1504 1504 1505 1505 1504 1504 1503 1503 1503 1503 1503
1458 1460 1463 1466 1467 1469 1473 1475 1478 1480 1482 1486 1488 1491 1493 1496 1499 1502 1504 1505 1507 1508 1508 1509 1510 1509 1509 1508 1507 1507 1506 1506 1505 1505 1505 1506 1506 1506 1506 1506 1506 1506 1506